PROGRESS-MS 07 (42971 NORAD) Tracking and Keplerian Element Data

This shows tracking and keplerian element data for the satellite.

Feedback or suggestion? Click here.




ElementValue
Catalog42971
NamePROGRESS-MS 07
Epoch Orbit2997
Epoch Day115.08198212
Epoch Year2018
RAAN283.915
Inclination51.6435
Eccentricity0.0038164
Argument of Perigee331.7243
Mean Anonmoly134.0149
Mean Motion15.52527452
Decay Rate5.067E-05
L11 42971U 17065A 18115.08198212 .00005067 00000-0 86468-4 0 9993
L22 42971 51.6435 283.9150 0038164 331.7243 134.0149 15.52527452 29979

Live tracking and technical data element details for PROGRESS-MS 07 (NORAD 42971). PROGRESS-MS 07 can be tracked NOW for your location showing map with azimuth and elevation plus other details from your city location.

Track the satellite on the map from your city or location and see movement details for azimuth, elevation, latitude, longitude, range, height, and movement on the map or in text.







IsCatalogInMostPopularTable: catalog: 42971, numindb: 138
Update: records affected: 1



GetName: 42971 PROGRESS-MS 07

Hit Count: updated at: Wed, 14 Nov 2018 11:19:56 GMT